www.pogodaiklimat.ru

АРХИВ ПОГОДЫ в Оклахоме-Сити

Время (UTC), дата Ветер
(напр.,м/с)
 
Видим.   Явления Облачность Т
(С)
Тd
(С)
f
(%)
Тe
(С)
Тes
(С)
Комфортность

P
(гПа)

Po
(гПа)
Тmin
(С)
Tmax
(С)
R
(мм)
SD
(см)
00:52 27.09 ЮВ  16 км    5/0 м
[средняя верхняя] 
+12.0  +9.0  82  +11  +11    1021.8  975.0  +10.6  +16.7     
01:52 27.09 штиль  16 км    5/0 м
[средняя верхняя] 
+12.2  +8.9  80  +12  +12    1022.1  975.4  +10.6  +16.7     
02:52 27.09 СЗ  16 км    2/0 м
[средняя] 
+12.0  +9.0  82  +11  +11    1022.2  975.7  +10.6  +16.7     
03:52 27.09 СЗ  16 км    2/0 м
[средняя] 
+12.0  +8.0  76  +11  +11    1021.9  975.4  +10.6  +16.7     
04:52 27.09 С  16 км    2/0 м
[средняя] 
+11.1  +8.3  83  +9  +9    1021.2  974.7  +10.6  +16.7     
05:52 27.09 СЗ  16 км    2/0 м
[средняя] 
+11.0  +8.0  82  +9  +9    1020.2  973.7  +7.8  +11.1     
06:52 27.09 СЗ  16 км    2/0 м
[средняя] 
+10.0  +8.0  87  +8  +8    1020.2  973.7  +7.8  +11.1     
07:52 27.09 СЗ  16 км    ясно  +10.0  +7.8  86  +8  +8    1019.7  973.4  +7.8  +11.1     
08:52 27.09 СЗ  16 км    ясно  +10.0  +7.0  82  +9  +9    1019.9  973.4  +7.8  +11.1     
09:52 27.09 штиль  16 км    ясно  +8.0  +7.0  93  +7  +7    1019.5  973.1  +7.8  +11.1     
10:52 27.09 СЗ  14 км    ясно  +7.8  +6.7  93  +6  +6    1019.7  973.1  +7.8  +11.1     
11:52 27.09 СЗ  16 км    ясно  +9.0  +8.0  93  +8  +8    1019.6  973.1  +8.3  +19.4     
13:52 27.09 ЮВ  16 км    ясно  +15.0  +8.9  67  +15  +16    1019.3  973.1  +8.3  +19.4     
14:52 27.09 ЮЗ  14 км    ясно  +17.0  +8.0  55  +17  +19    1019.6  973.1  +8.3  +19.4     
15:52 27.09 ЮЗ  16 км    ясно  +18.0  +7.0  49  +18  +22    1018.6  972.4  +8.3  +19.4     
16:52 27.09 ЮЗ  16 км    ясно  +19.4  +7.2  45  +20  +25    1017.9  971.8  +8.3  +19.4     
17:52 27.09 Ю  16 км    ясно  +21.0  +8.0  43  +22  +26  комфорт  1016.7  970.5  +18.9  +22.2     
18:52 27.09 Ю  16 км    ясно  +22.0  +8.0  41  +23  +27  комфорт  1015.6  969.5  +18.9  +22.2     
19:52 27.09 Ю  16 км    ясно  +22.2  +8.3  41  +23  +26  комфорт  1015.0  968.9  +18.9  +22.2     
20:52 27.09 Ю  16 км    ясно  +22.0  +8.0  41  +23  +26  комфорт  1014.4  968.6  +18.9  +22.2     
21:52 27.09 Ю  16 км    ясно  +22.0  +8.0  41  +23  +25  комфорт  1014.2  968.2  +18.9  +22.2     
22:52 27.09 Ю  16 км    ясно  +19.4  +10.0  55  +20  +21    1014.2  967.9  +18.9  +22.2     
23:52 27.09 Ю  16 км    ясно  +16.0  +12.0  77  +15  +15    1014.4  968.2  +13.3  +18.9     
00:52 28.09 ЮВ  16 км    ясно  +16.0  +12.0  77  +16  +16    1014.9  968.9  +13.3  +18.9     
01:52 28.09 штиль  16 км    ясно  +15.0  +12.2  83  +15  +15    1015.5  969.5  +13.3  +18.9     
02:52 28.09 Ю  16 км    ясно  +14.0  +12.0  88  +13  +13    1015.9  969.9  +13.3  +18.9     
03:52 28.09 Ю  16 км    ясно  +13.0  +12.0  94  +12  +12    1015.8  969.5  +13.3  +18.9     
04:52 28.09 Ю  16 км    ясно  +13.3  +11.7  90  +12  +12    1015.6  969.9  +13.3  +18.9     
05:52 28.09 Ю  16 км  сильный дождь, дымка  10/10 0 м
[верхняя] 
+13.0  +12.0  94  +12  +12    1015.7  969.9  +13.3  +15.0     
06:52 28.09 Ю  16 км  слабый дождь, дымка  10/10 0 м
[верхняя] 
+13.0  +12.0  94  +12  +12    1015.4  969.5  +13.3  +15.0     
07:52 28.09 Ю  16 км  слабый дождь, дымка  10/10 0 м
[верхняя] 
+13.9  +12.8  93  +12  +12    1015.4  969.5  +13.3  +15.0     
08:52 28.09 Ю  14 км    10/10 0 м  +14.0  +13.0  94  +13  +13    1015.7  969.9  +13.3  +15.0     
09:52 28.09 Ю  10 км    10/10 0 м  +14.0  +14.0  100  +12  +12    1015.7  969.9  +13.3  +15.0     
10:28 28.09 Ю  3 км    10/10 0 м  +15.0  +14.0  94  +13  +13    1016.3  970.2  +13.3  +15.0     
11:31 28.09 Ю  2 км    10/10 0 м
[средняя] 
+15.0  +15.0  100  +13  +13    1016.9  970.8  +15.0  +22.8     
12:52 28.09 Ю  8 км    10/10 0 м
[средняя] 
+16.0  +16.0  100  +15  +15    1017.4  971.5  +15.0  +22.8     
13:40 28.09 Ю  8 км    10/10 0 м
[средняя] 
+17.0  +16.0  94  +16  +16    1017.9  971.5  +15.0  +22.8     
14:52 28.09 ЮВ  16 км    10/10 0 м
[средняя] 
+19.0  +16.0  83  +20  +20    1018.0  971.8  +15.0  +22.8     
15:52 28.09 Ю  16 км    10/10 0 м
[средняя] 
+21.0  +17.0  78  +25  +25  комфорт  1018.2  972.1  +15.0  +22.8     
16:52 28.09 Ю  16 км    10/10 0 м
[средняя] 
+22.8  +17.2  71  +28  +28  душно  1018.0  972.1  +15.0  +22.8     
17:52 28.09 ЮВ  16 км    10/10 0 м
[средняя] 
+24.0  +17.0  65  +28  +28  душно  1017.4  971.5  +20.6  +25.0     
18:52 28.09 Ю  8
{10} 
16 км    10/10 0 м
[средняя] 
+24.0  +18.0  69  +28  +28  душно  1016.8  970.8  +20.6  +25.0     
19:16 28.09 ЮВ  16 км    10/10 0 м
[средняя] 
+24.0  +18.0  69  +28  +28  душно  1016.9  970.8  +20.6  +25.0     
20:52 28.09 Ю  16 км  слабый дождь  10/10 0 м
[средняя] 
+22.0  +17.0  73  +26  +26  душно  1016.8  970.8  +20.6  +25.0     
21:52 28.09 ЮВ  16 км    10/10 0 м
[средняя] 
+21.0  +17.0  78  +25  +25  комфорт  1016.8  970.8  +20.6  +25.0     
22:52 28.09 ЮВ  16 км  слабый дождь  10/10 0 м
[средняя] 
+20.6  +17.2  81  +24  +24  комфорт  1017.4  971.5  +20.6  +25.0     
23:52 28.09 ЮВ  16 км  слабый дождь  10/10 0 м
[средняя] 
+19.0  +17.0  88  +20  +20    1018.5  972.4  +17.2  +20.6     
00:52 29.09 ЮВ  16 км  слабый дождь  10/10 0 м
[средняя] 
+19.0  +16.0  83  +20  +20    1019.6  973.4  +17.2  +20.6     

 

Местоположение метеостанции Will Rogers World Airport: широта 35.3886 долгота -97.6003 высота над уровнем моря 394 м.

В архиве по умолчанию представлена погода в Оклахоме-Сити за последние 1-2 суток. Обновление информации о фактической погоде в базе происходит ежечасно! Архивные данные за месяц целиком и за предыдущие месяцы Вы можете получить, выбрав интересующий диапазон дат из раскрывающегося списка и нажав кнопку "Ввод!".

Внимание! Архив погоды МЕТАР в базе сайта в настоящее время начинается c 1 января 2013 г. Нет смысла пытаться выбрать более раннюю дату.

Внимание! Время в таблицах - всемирное. Для получения местного времени необходимо прибавить поправку, которая в Оклахоме-Сити равна -6 ч.

Ветер - указаны скорость ветра в м/с и направление, откуда дует ветер: С - северный, СВ - северо-восточный, В - восточный, ЮВ - юго-восточный, Ю - южный, ЮЗ - юго-западный, З - западный, СЗ - северо-западный.
Видимость - горизонтальная дальность видимости в метрах или километрах. При видимости от 1 до 10 км при отсутствии осадков обычно наблюдается дымка, при ухудшении видимости до 1 км и менее - туман. В сухую погоду видимость может ухудшаться дымом, пылью или мглою.
Атмосферные явления - указаны явления, наблюдавшиеся в указанный момент времени.
Облачность - указаны через наклонную черту верхняя и нижняя облачность в баллах и высота нижней границы облаков в метрах. Внимание: облачность, как и прочие метеорологические величины в США измеряются автоматическими метеостанциями. Указанные значения в баллах носят условный характер и показывают процент времени, в течение которого, в среднем, лазерный луч высотомера отражался от облаков обратно.
T - Температура воздуха - температура, измеренная на высоте 2 м над землей.
Td - Температура точки росы - температура, при понижении до которой содержащийся в воздухе водяной пар достигнет насыщения.
f - Относительная влажность воздуха - влажноcть воздуха, измеренная на высоте 2 м над землей.
Te - Эффективная температура - температура, которую ощущает одетый по сезону человек в тени. Характеристика душности погоды. При расчете учитывается влияние влажности воздуха и скорости ветра на теплоощущения человека.
Tes - Эффективная температура на солнце - температура, которую ощущает человек, с поправкой на солнечный нагрев. Характеристика знойности погоды. Зависит от высоты солнца над горизонтом, облачности и скорости ветра. Ночью, в пасмурную погоду, а также при ветре 12 м/с и более поправка равна нулю.
P - Атмосферное давление - приведенное к уровню моря атмосферное давление.
Po - Атмосферное давление - измеренное на уровне метеостанции атмосферное давление.
Tmin - Минимальная температура - минимум температуры воздуха на высоте 2 м над землей.
Tmax - Максимальная температура - максимум температуры воздуха на высоте 2 м над землей.
R - Количество осадков - Количество выпавших осадков за 3 или 6 часов, мм.
SD - Снежный покров - Высота снежного покрова, см.